This is the latest recevied weather packets stored in our database for station/object AI5KP-13. If no packets are shown the sender has not sent any weather packets the latest 10 day(s).
| Time | Temp. | Humidity | Pressure | Rain* | Wind** | Luminosity | Snow |
|---|---|---|---|---|---|---|---|
| 1777126633 | 16.67° C | 96% | 1009.6 hPa | 0 mm | - | 401 W/m² | - |
| 1777126329 | 17.22° C | 96% | 1009.7 hPa | 0 mm | - | 412 W/m² | - |
| 1777126025 | 16.67° C | 96% | 1009.8 hPa | 0 mm | - | 423 W/m² | - |
| 1777125722 | 16.67° C | 96% | 1009.8 hPa | 0 mm | - | 388 W/m² | - |
| 1777125417 | 15.56° C | 96% | 1010 hPa | 0 mm | - | 264 W/m² | - |
| 1777125113 | 15° C | 96% | 1009.8 hPa | 0 mm | - | 150 W/m² | - |
| 1777124809 | 15° C | 96% | 1009.8 hPa | 0 mm | - | 174 W/m² | - |
| 1777124504 | 15° C | 96% | 1009.9 hPa | 0 mm | - | 140 W/m² | - |
| 1777124201 | 15° C | 96% | 1009.4 hPa | 0 mm | - | 139 W/m² | - |
| 1777123898 | 15.56° C | 96% | 1009.6 hPa | 0 mm | - | 125 W/m² | - |
| 1777123595 | 15° C | 96% | 1009.6 hPa | 0 mm | - | 104 W/m² | - |
| 1777123290 | 14.44° C | 96% | 1009.7 hPa | 0 mm | - | 103 W/m² | - |
| 1777122987 | 13.89° C | 96% | 1009.7 hPa | 0 mm | - | 106 W/m² | - |
| 1777122683 | 13.89° C | 96% | 1009.6 hPa | 0 mm | - | 118 W/m² | - |
| 1777122378 | 12.78° C | 96% | 1009.7 hPa | 0 mm | - | 89 W/m² | - |
| 1777122075 | 12.22° C | 96% | 1009.8 hPa | 0 mm | - | 89 W/m² | - |
| 1777121771 | 12.22° C | 96% | 1009.6 hPa | 0 mm | - | 91 W/m² | - |
| 1777121469 | 13.33° C | 96% | 1009.4 hPa | 0 mm | - | 86 W/m² | - |
| 1777121168 | 13.89° C | 96% | 1009.4 hPa | 0 mm | - | 64 W/m² | - |
| 1777120866 | 12.22° C | 96% | 1009.4 hPa | 0 mm | - | 70 W/m² | - |
| 1777120562 | 11.11° C | 96% | 1009.4 hPa | 0 mm | - | 48 W/m² | - |
| 1777120258 | 11.11° C | 96% | 1009.7 hPa | 0 mm | - | 47 W/m² | - |
| 1777119953 | 11.11° C | 96% | 1009.4 hPa | 0 mm | - | 48 W/m² | - |
| 1777119650 | 11.11° C | 96% | 1009.6 hPa | 0 mm | - | 44 W/m² | - |
| 1777119345 | 11.11° C | 96% | 1009.3 hPa | 0 mm | - | 40 W/m² | - |
* Rain latest hour (hover to see other rain measurements)
** Current wind speed in m/s (hover to see current wind gust speed)